Weather History for KAJZ - October, 2013

Change the Weather History Date:

Wednesday, October 2, 2013

  Actual Average (KMTJ) Record (KMTJ)
Temperature  
Mean Temperature 62 °F 56 °F  
Max Temperature 80 °F 71 °F 84 °F (2000)
Min Temperature 44 °F 41 °F 38 °F (2014)
Degree Days  
Heating Degree Days 3 9  
Month to date heating degree days 18  
Since 1 July heating degree days 145  
Cooling Degree Days 0 0  
Month to date cooling degree days 0  
Year to date cooling degree days 643  
Growing Degree Days 12 (Base 50)    
Moisture  
Dew Point 29 °F    
Average Humidity 33    
Maximum Humidity 60    
Minimum Humidity 13    
Precipitation  
Precipitation 0.00 in 0.06 in 0.51 in (2002)
Month to date precipitation 0.13  
Year to date precipitation 8.78  
Sea Level Pressure  
Sea Level Pressure 30.01 in    
Wind  
Wind Speed 6 mph (ENE)    
Max Wind Speed 16 mph    
Max Gust Speed 23 mph    
Visibility 10 miles    
Events      
T = Trace of Precipitation, MM = Missing Value Source: NWS Daily Summary

Daily Weather History Graph

Daily Weather History Graph

Search for Another Location

Airport or City:

Trip Planner

Search our weather history database for the weather conditions in past years. The results will help you decide how hot, cold, wet, or windy it might be!

Date:

Astronomy

Oct. 02, 2013 Rise Set
Actual Time 7:09 AM MDT 6:52 PM MDT
Civil Twilight 6:42 AM MDT 7:19 PM MDT
Nautical Twilight 6:11 AM MDT 7:50 PM MDT
Astronomical Twilight 5:40 AM MDT 8:21 PM MDT
Moon 4:46 AM MDT (10/2) 5:29 PM MDT (10/2)
Length of Visible Light 12h 36m
Length of Day
11h 43m
Waning Crescent, 6% of the Moon is Illuminated
Oct 2
Waning Crescent
Oct 4
New
Oct 11
First Quarter
Oct 18
Full
Oct 26
Last Quarter

Hourly Weather History & Observations

Time (MDT) Temp. Windchill Dew Point Humidity Pressure Visibility Wind Dir Wind Speed Gust Speed Precip Events Conditions
12:15 AM 53.4 °F - 33.4 °F 47% 30.05 in 10.0 mi East 5.8 mph - N/A   Clear
12:35 AM 53.2 °F - 33.6 °F 47% 30.05 in 10.0 mi East 5.8 mph - N/A   Clear
12:55 AM 53.2 °F - 32.0 °F 44% 30.05 in 10.0 mi ENE 10.4 mph - N/A   Clear
1:15 AM 53.6 °F - 32.9 °F 45% 30.05 in 10.0 mi ENE 5.8 mph - N/A   Clear
1:35 AM 51.8 °F - 32.2 °F 47% 30.05 in 10.0 mi ENE 5.8 mph - N/A   Clear
1:55 AM 52.2 °F - 32.5 °F 47% 30.06 in 10.0 mi ENE 6.9 mph - N/A   Clear
2:15 AM 53.6 °F - 32.4 °F 44% 30.06 in 10.0 mi East 9.2 mph - N/A   Clear
2:35 AM 48.4 °F - 32.2 °F 54% 30.05 in 10.0 mi East 5.8 mph - N/A   Clear
2:55 AM 47.3 °F - 32.0 °F 55% 30.05 in 10.0 mi ENE 4.6 mph - N/A   Clear
3:15 AM 51.1 °F - 31.5 °F 47% 30.05 in 10.0 mi ENE 8.1 mph - N/A   Clear
3:35 AM 49.5 °F - 30.7 °F 49% 30.05 in 10.0 mi ENE 8.1 mph - N/A   Clear
3:55 AM 48.6 °F - 32.0 °F 53% 30.05 in 10.0 mi East 4.6 mph - N/A   Clear
4:15 AM 46.8 °F - 30.7 °F 54% 30.05 in 10.0 mi ENE 6.9 mph - N/A   Clear
4:35 AM 45.3 °F 42.3 °F 30.9 °F 57% 30.05 in 10.0 mi East 5.8 mph - N/A   Clear
4:55 AM 45.9 °F 42.9 °F 30.7 °F 56% 30.06 in 10.0 mi ENE 5.8 mph - N/A   Clear
5:15 AM 44.8 °F 41.6 °F 31.1 °F 59% 30.06 in 10.0 mi NE 5.8 mph - N/A   Clear
5:35 AM 45.0 °F - 31.6 °F 60% 30.07 in 10.0 mi Calm Calm - N/A   Clear
5:55 AM 46.6 °F - 30.9 °F 54% 30.06 in 10.0 mi ENE 6.9 mph - N/A   Clear
6:15 AM 45.7 °F 42.0 °F 31.5 °F 58% 30.07 in 10.0 mi ENE 6.9 mph - N/A   Clear
6:35 AM 45.0 °F 41.2 °F 30.2 °F 56% 30.07 in 10.0 mi East 6.9 mph - N/A   Clear
6:55 AM 46.0 °F 42.5 °F 30.7 °F 55% 30.08 in 10.0 mi ENE 6.9 mph - N/A   Clear
7:15 AM 45.7 °F 42.0 °F 30.6 °F 56% 30.08 in 10.0 mi ENE 6.9 mph - N/A   Clear
7:35 AM 46.4 °F 42.9 °F 30.7 °F 54% 30.08 in 10.0 mi ENE 6.9 mph - N/A   Clear
7:55 AM 48.2 °F - 31.3 °F 52% 30.09 in 10.0 mi ENE 6.9 mph - N/A   Clear
8:15 AM 50.2 °F - 31.3 °F 48% 30.09 in 10.0 mi East 8.1 mph - N/A   Clear
8:35 AM 52.9 °F - 31.8 °F 45% 30.09 in 10.0 mi ENE 8.1 mph - N/A   Clear
8:55 AM 54.9 °F - 31.1 °F 40% 30.10 in 10.0 mi East 5.8 mph - N/A   Clear
9:15 AM 56.3 °F - 31.1 °F 38% 30.09 in 10.0 mi East 3.5 mph - N/A   Clear
9:35 AM 58.1 °F - 30.7 °F 35% 30.09 in 10.0 mi ENE 3.5 mph - N/A   Clear
9:55 AM 59.0 °F - 29.8 °F 33% 30.09 in 10.0 mi ENE 4.6 mph - N/A   Clear
10:15 AM 61.0 °F - 30.9 °F 32% 30.09 in 10.0 mi NE 3.5 mph - N/A   Clear
10:35 AM 64.6 °F - 30.4 °F 28% 30.08 in 10.0 mi ENE 6.9 mph - N/A   Clear
10:55 AM 64.8 °F - 30.9 °F 28% 30.08 in 10.0 mi ENE 4.6 mph - N/A   Clear
11:15 AM 66.0 °F - 31.1 °F 27% 30.07 in 10.0 mi Calm Calm - N/A   Clear
11:35 AM 68.9 °F - 30.4 °F 24% 30.06 in 7.0 mi Calm Calm - N/A   Clear
11:55 AM 70.0 °F - 29.3 °F 22% 30.05 in 10.0 mi Calm Calm - N/A   Clear
12:15 PM 71.1 °F - 25.9 °F 18% 30.04 in 10.0 mi Calm Calm - N/A   Clear
12:35 PM 72.9 °F - 25.9 °F 17% 30.03 in 10.0 mi Calm Calm - N/A   Clear
12:55 PM 75.2 °F - 23.0 °F 14% 30.02 in 10.0 mi Calm Calm - N/A   Clear
1:15 PM 75.9 °F - 22.3 °F 14% 30.01 in 7.0 mi Calm Calm - N/A   Clear
1:35 PM 77.4 °F - 23.2 °F 13% 30.00 in 10.0 mi SSW 3.5 mph - N/A   Clear
1:55 PM 78.3 °F - 23.4 °F 13% 29.98 in 10.0 mi SW 4.6 mph - N/A   Clear
2:15 PM 77.7 °F - 23.4 °F 13% 29.97 in 10.0 mi Calm Calm - N/A   Clear
2:35 PM 78.1 °F - 24.4 °F 14% 29.96 in 10.0 mi SW 3.5 mph - N/A   Clear
2:55 PM 77.9 °F - 24.6 °F 14% 29.95 in 10.0 mi South 3.5 mph - N/A   Clear
3:15 PM 79.3 °F - 25.2 °F 14% 29.94 in 10.0 mi SSW 6.9 mph - N/A   Clear
3:35 PM 79.0 °F - 25.2 °F 14% 29.94 in 10.0 mi SW 8.1 mph - N/A   Clear
3:55 PM 79.7 °F - 24.6 °F 13% 29.93 in 10.0 mi SW 8.1 mph - N/A   Clear
4:15 PM 79.5 °F - 25.0 °F 13% 29.93 in 10.0 mi WSW 5.8 mph - N/A   Clear
4:35 PM 80.6 °F - 25.5 °F 13% 29.92 in 10.0 mi SW 16.1 mph - N/A   Clear
4:55 PM 78.8 °F - 25.0 °F 14% 29.92 in 10.0 mi SW 16.1 mph 21.9 mph N/A   Clear
5:15 PM 79.0 °F - 25.5 °F 14% 29.92 in 10.0 mi SW 13.8 mph 18.4 mph N/A   Clear
5:35 PM 78.1 °F - 24.6 °F 14% 29.92 in 10.0 mi SW 10.4 mph 17.3 mph N/A   Clear
5:55 PM 77.2 °F - 24.4 °F 14% 29.92 in 10.0 mi SW 9.2 mph - N/A   Clear
6:15 PM 75.7 °F - 25.3 °F 15% 29.92 in 10.0 mi SW 13.8 mph 21.9 mph N/A   Clear
6:35 PM 74.1 °F - 23.7 °F 15% 29.92 in 10.0 mi SW 13.8 mph 23.0 mph N/A   Clear
6:55 PM 72.5 °F - 24.4 °F 17% 29.92 in 7.0 mi SW 16.1 mph - N/A   Clear
7:15 PM 70.9 °F - 25.5 °F 18% 29.93 in 10.0 mi WSW 6.9 mph - N/A   Clear
7:35 PM 71.2 °F - 25.2 °F 18% 29.94 in 10.0 mi West 5.8 mph - N/A   Clear
7:55 PM 70.2 °F - 25.9 °F 19% 29.94 in 10.0 mi West 6.9 mph - N/A   Clear
8:15 PM 68.2 °F - 27.0 °F 21% 29.94 in 10.0 mi West 4.6 mph - N/A   Clear
8:35 PM 68.0 °F - 26.8 °F 21% 29.95 in 10.0 mi West 3.5 mph - N/A   Clear
8:55 PM 66.9 °F - 27.1 °F 22% 29.95 in 10.0 mi Calm Calm - N/A   Clear
9:15 PM 63.5 °F - 28.8 °F 27% 29.95 in 10.0 mi ENE 3.5 mph - N/A   Clear
9:35 PM 60.3 °F - 28.8 °F 30% 29.95 in 10.0 mi ENE 3.5 mph - N/A   Clear
9:55 PM 59.0 °F - 30.0 °F 33% 29.95 in 10.0 mi NNE 8.1 mph - N/A   Clear
10:15 PM 60.1 °F - 29.7 °F 32% 29.94 in 10.0 mi North 8.1 mph - N/A   Clear
10:35 PM 60.1 °F - 30.0 °F 32% 29.94 in 10.0 mi NNE 10.4 mph - N/A   Clear
10:55 PM 59.7 °F - 30.6 °F 33% 29.93 in 10.0 mi NNE 9.2 mph - N/A   Clear
11:15 PM 58.1 °F - 28.6 °F 32% 29.93 in 10.0 mi NE 8.1 mph - N/A   Clear
11:35 PM 56.8 °F - 29.1 °F 35% 29.93 in 10.0 mi NE 10.4 mph - N/A   Clear
11:55 PM 57.2 °F - 30.4 °F 36% 29.93 in 10.0 mi NE 9.2 mph - N/A   Clear